This demonstration page uses our WeatherBlox Daily Observations layout. Learn more.

Left ArrowRight Arrow

40.92945, -100.16068

Hourly Observations for June 23, 2020

Temp ( °F °C ) Dew Point ( °F °C ) Humidity (%) Winds ( mph kmh ) Pressure ( in mb ) Visibility ( mi km ) Precip ( " mm )
12:15 am 00:15 Clear 56 13.2 55 12.6 96 96 NNW 7 11 30.05 1018 10 16.0934 0 0
12:35 am 00:35 Clear 57 13.8 56 13.3 97 97 N 6 9 30.05 1017 10 16.0934 0 0
12:55 am 00:55 Clear 56 13.5 55 13 97 97 Calm 30.05 1018 10 16.0934 0 0
1:15 am 01:15 Clear 56 13.6 55 13 96 96 Calm 30.06 1018 10 16.0934 0 0
1:35 am 01:35 Clear 56 13.1 55 12.6 97 97 W 6 9 30.07 1018 10 16.0934 0 0
1:55 am 01:55 Clear 56 13.1 55 12.7 97 97 W 3 6 30.08 1019 10 16.0934 0 0
2:15 am 02:15 Clear 55 12.9 54 12.3 96 96 W 3 6 30.07 1018 10 16.0934 0 0
2:35 am 02:35 Clear 55 13 55 12.6 97 97 W 3 6 30.07 1018 10 16.0934 0 0
2:55 am 02:55 Clear 55 12.9 54 12.3 96 96 W 3 6 30.07 1018 10 16.0934 0 0
3:15 am 03:15 Clear 54 12.4 54 12 97 97 WNW 3 6 30.09 1019 10 16.0934 0 0
3:35 am 03:35 Clear 54 12.4 53 11.8 96 96 Calm 30.09 1019 10 16.0934 0 0
3:55 am 03:55 Clear 52 10.9 51 10.3 96 96 NNW 5 7 30.09 1019 10 16.0934 0 0
4:15 am 04:15 Clear 52 10.9 51 10.6 98 98 NNW 5 7 30.1 1019 7 11.26538 0 0
4:35 am 04:35 Clear 53 11.5 52 11.2 98 98 NW 5 7 30.1 1019 10 16.0934 0 0
4:55 am 04:55 Clear 53 11.5 52 11.2 98 98 NNW 3 6 30.09 1019 7 11.26538 0 0
5:15 am 05:15 Partly Cloudy 53 11.7 53 11.5 99 99 WNW 6 9 30.09 1019 7 11.26538 0 0
5:35 am 05:35 Clear 54 12.2 53 11.9 98 98 W 5 7 30.08 1019 7 11.26538 0 0
5:55 am 05:55 Clear 54 12.1 53 11.8 98 98 W 5 7 30.09 1019 7 11.26538 0 0
6:15 am 06:15 Sunny with Mist and Fog 54 12 53 11.6 97 97 W 3 6 30.09 1019 5 8.0467 0 0
6:35 am 06:35 Sunny with Mist and Fog 53 11.7 53 11.4 98 98 WNW 6 9 30.1 1019 4 6.43736 0 0
6:55 am 06:55 Sunny with Mist and Fog 55 12.8 55 12.5 98 98 WNW 6 9 30.09 1019 5 8.0467 0 0
7:15 am 07:15 Sunny 57 14 56 13.5 97 97 WNW 7 11 30.07 1018 7 11.26538 0 0
7:35 am 07:35 Sunny 59 15 57 14.1 94 94 WNW 6 9 30.07 1018 10 16.0934 0 0
7:55 am 07:55 Sunny 60 15.8 58 14.5 92 92 W 6 9 30.06 1018 10 16.0934 0 0
8:15 am 08:15 Sunny 62 16.6 58 14.6 88 88 W 8 13 30.05 1018 10 16.0934 0 0
8:35 am 08:35 Sunny 64 17.7 59 15 84 84 W 7 11 30.04 1017 10 16.0934 0 0
8:55 am 08:55 Sunny 65 18.6 59 15 80 80 W 13 20 30.03 1017 10 16.0934 0 0
9:15 am 09:15 Sunny 68 19.8 60 15.4 76 76 W 10 17 30.02 1017 10 16.0934 0 0
9:35 am 09:35 Sunny 70 21 59 15.2 70 70 WNW 10 17 30.01 1016 10 16.0934 0 0
9:55 am 09:55 Sunny 71 21.7 59 15 66 66 WNW 13 20 30.01 1016 10 16.0934 0 0
10:15 am 10:15 Sunny 73 22.6 59 15.2 63 63 WNW 10 17 29.99 1016 10 16.0934 0 0
10:35 am 10:35 Sunny 75 23.8 59 14.9 58 58 WNW 13 20 29.98 1015 10 16.0934 0 0
10:55 am 10:55 Sunny 76 24.3 57 14.1 53 53 NW 10 17 29.97 1015 10 16.0934 0 0
11:15 am 11:15 Sunny 77 25.1 56 13.3 48 48 WNW 12 19 29.96 1015 10 16.0934 0 0
11:35 am 11:35 Sunny 78 25.5 56 13.5 47 47 NW 10 17 29.95 1014 10 16.0934 0 0
11:55 am 11:55 Partly Cloudy 78 25.8 56 13.1 45 45 NW 13 20 29.94 1014 10 16.0934 0 0
12:15 pm 12:15 Mostly Cloudy 80 26.5 55 12.6 42 42 WNW 9 15 29.93 1013 10 16.0934 0 0
12:35 pm 12:35 Partly Cloudy 80 26.8 55 12.5 41 41 NNW 13 20 29.92 1013 10 16.0934 0 0
12:55 pm 12:55 Partly Cloudy 81 27 54 12 39 39 WNW 12 19 29.92 1013 10 16.0934 0 0
1:15 pm 13:15 Mostly Cloudy 82 27.7 53 11.8 37 37 N 12 19 29.92 1013 10 16.0934 0 0
1:35 pm 13:35 Partly Cloudy 83 28.1 53 11.8 36 36 NNW 13 20 29.9 1013 10 16.0934 0 0
1:55 pm 13:55 Partly Cloudy 83 28.2 54 12.1 37 37 NNW 13 20 29.9 1013 10 16.0934 0 0
2:15 pm 14:15 Partly Cloudy 83 28.4 53 11.9 36 36 N 15 24 29.89 1012 10 16.0934 0 0
2:35 pm 14:35 Partly Cloudy 83 28.4 53 11.7 36 36 NNW 10 17 29.89 1012 10 16.0934 0 0
2:55 pm 14:55 Partly Cloudy 84 29 53 11.9 35 35 N 9 15 29.88 1012 10 16.0934 0 0
3:55 pm 15:55 Mostly Cloudy 80 26.8 55 12.9 42 42 N 9 15 29.88 1012 10 16.0934 0 0
4:15 pm 16:15 Partly Cloudy 84 28.7 56 13.2 39 39 N 7 11 29.87 1011 10 16.0934 0 0
4:35 pm 16:35 Mostly Cloudy 83 28.4 56 13.5 40 40 N 5 7 29.86 1011 10 16.0934 0 0
4:55 pm 16:55 Mostly Cloudy 83 28.1 56 13.5 41 41 N 10 17 29.86 1011 10 16.0934 0 0
5:15 pm 17:15 Mostly Cloudy 78 25.7 56 13.3 46 46 ENE 8 13 29.87 1012 10 16.0934 0 0
5:35 pm 17:35 Cloudy 79 26 57 14 48 48 NE 8 13 29.87 1012 10 16.0934 0 0
5:55 pm 17:55 Partly Cloudy 82 27.9 58 14.2 43 43 ENE 6 9 29.85 1011 10 16.0934 0 0
6:15 pm 18:15 Sunny 82 27.6 56 13.5 42 42 N 6 9 29.85 1011 10 16.0934 0 0
6:35 pm 18:35 Sunny 81 27.2 57 13.8 44 44 NNE 9 15 29.85 1011 10 16.0934 0 0
6:55 pm 18:55 Partly Cloudy 80 26.9 56 13.6 44 44 NNE 10 17 29.85 1011 10 16.0934 0 0
7:15 pm 19:15 Sunny 80 26.4 56 13.3 44 44 N 8 13 29.86 1011 10 16.0934 0 0
7:35 pm 19:35 Sunny 78 25.8 55 12.8 45 45 NE 7 11 29.85 1011 10 16.0934 0 0
7:55 pm 19:55 Sunny 77 25.2 56 13.2 47 47 NE 8 13 29.86 1011 10 16.0934 0 0
8:15 pm 20:15 Sunny 76 24.3 56 13.1 50 50 NE 8 13 29.88 1012 10 16.0934 0 0
8:35 pm 20:35 Sunny 74 23.2 56 13.3 54 54 ENE 7 11 29.88 1012 10 16.0934 0 0
8:55 pm 20:55 Sunny 71 21.6 56 13.6 61 61 ENE 5 7 29.9 1012 10 16.0934 0 0
9:15 pm 21:15 Clear 69 20.3 56 13.3 64 64 E 7 11 29.92 1013 10 16.0934 0 0
9:35 pm 21:35 Clear 67 19.5 55 13 66 66 E 5 7 29.94 1014 10 16.0934 0 0
9:55 pm 21:55 Clear 65 18.4 55 13 71 71 E 6 9 29.96 1014 10 16.0934 0 0
10:15 pm 22:15 Clear 63 17.3 55 13 76 76 ENE 6 9 29.97 1015 10 16.0934 0 0
10:35 pm 22:35 Clear 63 17.4 56 13.2 77 77 E 5 7 29.97 1015 10 16.0934 0 0
10:55 pm 22:55 Clear 63 17.3 55 12.5 74 74 Calm 29.99 1015 10 16.0934 0 0
11:15 pm 23:15 Clear 61 16 54 12.2 78 78 Calm 30 1016 10 16.0934 0 0
11:35 pm 23:35 Clear 59 15 54 12.2 83 83 E 5 7 30.01 1016 10 16.0934 0 0
11:55 pm 23:55 Clear 60 15.7 54 12.2 80 80 ESE 5 7 30 1016 10 16.0934 0 0

Powered by AerisWeather